{"data":{"norad_id":61705,"intl_designator":"2024-195U","name":"STARLINK-32515","alt_names":[],"object_type":"PAYLOAD","status":"ACTIVE","operator":null,"country":"US","launch_date":"2024-10-30","launch_site_code":"AFWTR","launch_vehicle":null,"mission":null,"orbit_class":"UNKNOWN","rcs_meters":null,"size_class":null,"mass_kg":null,"dimensions":null,"purposes":["comms"],"wikipedia_slug":null,"has_3d_model":false,"image_url":null,"decayed_at":null,"tle_current":{"epoch":"2026-05-25T00:26:14.703072Z","epoch_age_seconds":70656,"freshness":"FRESH","line1":"1 61705U 24195U   26145.01822573  .00000339  00000+0  23583-4 0  9995","line2":"2 61705  53.1589 161.1054 0001164  89.7774 270.3360 15.30189479 88862","mean_motion":15.30189479,"eccentricity":0.0001164,"inclination_deg":53.1589,"raan_deg":161.1054,"arg_perigee_deg":89.7774,"mean_anomaly_deg":270.336,"bstar":2.3583e-5,"rev_number":8886,"period_min":94.105992738955,"perigee_km":474.44874957142,"apogee_km":476.04421724636,"semimajor_km":6853.3834834089,"source":"CELESTRAK","updated_at":"2026-05-25T13:38:19.442842Z"}}}